Location: Battersea Observatory
(44.4318°N, 76.3841°W)
Time: 05:54:25
(UTC-05:00)

Vanguard 2 - All Passes

Search period start: 19 January 2022 00:00
Search period end: 29 January 2022 00:00
Orbit: 553 x 2936 km, 32.9° (Epoch: 19 January)

Date Brightness Start Highest point End Pass type
(mag) Time Alt. Az. Time Alt. Az. Time Alt. Az.
19 Jan - 00:27:04 10° WSW 00:41:46 56° S 00:58:48 10° ESE visible
19 Jan - 02:37:31 10° W 02:53:15 45° SSW 03:08:29 10° SE visible
19 Jan - 04:51:00 10° W 05:03:14 24° SW 05:14:04 10° S visible
19 Jan - 20:30:00 10° SSW 20:38:47 28° SE 20:50:46 10° E visible
19 Jan - 22:35:53 10° SW 22:48:05 49° SSE 23:04:32 10° E visible
20 Jan - 00:44:36 10° WSW 00:59:19 54° S 01:16:15 10° ESE visible
20 Jan - 02:55:23 10° W 03:10:35 40° SSW 03:25:18 10° SE visible
20 Jan - 05:10:17 10° W 05:20:08 18° SW 05:29:09 10° S visible
20 Jan - 20:46:30 10° SSW 20:55:49 33° SSE 21:08:57 10° E visible
20 Jan - 22:53:09 10° WSW 23:05:32 52° S 23:22:14 10° E visible
21 Jan - 01:02:11 10° W 01:16:51 52° SSW 01:33:35 10° ESE visible
21 Jan - 03:13:23 10° W 03:27:49 34° SSW 03:41:50 10° SSE visible
21 Jan - 05:31:13 10° WSW 05:36:59 12° SW 05:42:29 10° SSW visible
21 Jan - 19:00:30 10° SSE 19:05:13 14° SE 19:10:54 10° ESE visible
21 Jan - 21:03:18 10° SW 21:12:56 39° SSE 21:26:57 10° E visible
21 Jan - 23:10:31 10° WSW 23:23:02 54° S 23:39:51 10° ESE visible
22 Jan - 01:19:49 10° W 01:34:20 48° SSW 01:50:45 10° SE visible
22 Jan - 03:31:39 10° W 03:44:59 28° SW 03:57:59 10° SSE visible
22 Jan - 19:15:50 10° S 19:22:01 20° SE 19:30:11 10° E visible
22 Jan - 21:20:18 10° SW 21:30:11 43° SSE 21:44:48 10° E visible
22 Jan - 23:27:58 10° WSW 23:40:34 53° S 23:57:24 10° ESE visible
23 Jan - 01:37:34 10° W 01:51:47 43° SSW 02:07:43 10° SE visible
23 Jan - 03:50:20 10° W 04:02:04 23° SW 04:13:34 10° S visible
23 Jan - 19:31:58 10° SSW 19:38:55 25° SE 19:48:42 10° E visible
23 Jan - 21:37:27 10° SW 21:47:32 47° SSE 22:02:34 10° E visible
23 Jan - 23:45:28 10° WSW 23:58:05 52° S 00:14:49 10° ESE night (unlit)
24 Jan - 01:55:25 10° W 02:09:09 38° SSW 02:24:25 10° SSE visible
24 Jan - 04:09:49 10° WSW 04:19:05 17° SW 04:28:15 10° SSW visible
24 Jan - 19:48:31 10° SSW 19:55:57 30° SSE 20:06:53 10° E visible
24 Jan - 21:54:43 10° WSW 22:04:57 50° S 22:20:15 10° ESE visible
25 Jan - 00:03:02 10° W 00:15:37 49° SSW 00:32:06 10° SE night (unlit)
25 Jan - 02:13:28 10° W 02:26:27 32° SSW 02:40:47 10° SSE visible
25 Jan - 04:31:38 10° WSW 04:36:04 11° SW 04:40:30 10° SSW visible
25 Jan - 18:03:27 10° SSE 18:05:53 11° SE 18:08:36 10° ESE visible
25 Jan - 20:05:21 10° SW 20:13:04 35° SSE 20:24:50 10° E visible
25 Jan - 22:12:05 10° WSW 22:22:25 50° S 22:37:52 10° ESE visible
26 Jan - 00:20:40 10° W 00:33:07 44° SSW 00:49:12 10° SE visible
26 Jan - 02:31:48 10° W 02:43:42 26° SW 02:56:41 10° SSE visible
26 Jan - 18:18:18 10° S 18:22:43 16° SE 18:28:21 10° ESE visible
26 Jan - 20:22:23 10° SW 20:30:19 40° SSE 20:42:40 10° E visible
26 Jan - 22:29:31 10° WSW 22:39:55 50° S 22:55:22 10° ESE visible
27 Jan - 00:38:25 10° W 00:50:35 39° SSW 01:06:03 10° SE visible
27 Jan - 02:50:40 10° WSW 03:00:54 20° SW 03:11:55 10° S visible
27 Jan - 18:34:23 10° S 18:39:39 21° SE 18:46:56 10° E visible
27 Jan - 20:39:33 10° SW 20:47:38 43° SSE 21:00:25 10° ESE visible
27 Jan - 22:47:00 10° WSW 22:57:26 47° S 23:12:45 10° ESE visible
28 Jan - 00:56:18 10° W 01:08:01 34° SSW 01:22:35 10° SSE visible
28 Jan - 03:10:39 10° WSW 03:18:04 15° SW 03:25:53 10° SSW visible
28 Jan - 18:50:57 10° SSW 18:56:42 26° SSE 19:05:05 10° E visible
28 Jan - 20:56:50 10° WSW 21:05:02 45° S 21:18:05 10° ESE visible
28 Jan - 23:04:35 10° WSW 23:14:57 44° SSW 23:29:57 10° SE visible
